{"data":{"norad_id":63369,"intl_designator":"2025-063G","name":"STARLINK-33626","alt_names":[],"object_type":"PAYLOAD","status":"ACTIVE","operator":null,"country":"US","launch_date":"2025-03-26","launch_site_code":"AFWTR","launch_vehicle":null,"mission":null,"orbit_class":"UNKNOWN","rcs_meters":null,"size_class":null,"mass_kg":null,"dimensions":null,"purposes":["comms"],"wikipedia_slug":null,"has_3d_model":false,"image_url":null,"decayed_at":null,"tle_current":{"epoch":"2026-09-20T12:37:39.532800Z","epoch_age_seconds":156611,"freshness":"FRESH","line1":"1 63369U 25063G   26263.52615200  .00006433  00000+0  20136-3 0  9993","line2":"2 63369  53.1557 221.5177 0001328  67.3540 292.7603 15.34401509 84620","mean_motion":15.34401509,"eccentricity":0.0001328,"inclination_deg":53.1557,"raan_deg":221.5177,"arg_perigee_deg":67.354,"mean_anomaly_deg":292.7603,"bstar":0.00020136,"rev_number":8462,"period_min":93.847665787195,"perigee_km":461.79029215649,"apogee_km":463.60721813306,"semimajor_km":6840.8357551448,"source":"CELESTRAK","updated_at":"2026-09-21T09:00:34.973166Z"}}}